Location: Clatteringshaws Loch
(55.0508°N, 4.2860°W)
Time: 23:27:48
(UTC+00:00)

Daily predictions for brighter satellites

Satellite Brightness Start Highest point End
(mag) Time Altitude Azimuth Time Altitude Azimuth Time Altitude Azimuth
Cosmos 2237 Rocket 3.5 17:08:33 10° W 17:13:36 32° NW 17:18:39 10° NNE
Cosmos 1151 Rocket 4.5 17:11:50 10° NNE 17:14:50 18° ENE 17:17:50 10° ESE
AQUARIUS 4.2 17:12:58 10° SSE 17:17:26 69° ENE 17:21:56 10° NNW
Cosmos 1867 3.8 17:13:30 10° SW 17:18:58 73° NW 17:24:28 10° NE
KORONAS-FOTON 4.0 17:15:31 10° S 17:19:11 50° E 17:22:53 10° NNE
Cosmos 2154 Rocket 4.4 17:14:30 10° NNW 17:20:48 73° W 17:27:07 10° S
Cosmos 1455 3.6 17:19:45 10° NNE 17:22:33 19° ENE 17:25:18 10° ESE
Cosmos 1656 Rocket 3.6 17:17:24 10° NNW 17:22:54 83° NE 17:28:26 10° SE
Cosmos 1346 Rocket 3.6 17:20:01 10° N 17:23:30 29° ENE 17:26:56 10° SE
SL-24 R/B - RUBIN 2 4.2 17:19:14 10° NW 17:23:54 62° SW 17:28:13 10° SSE
Okean 3 Rocket 4.2 17:20:31 10° SSE 17:24:39 36° E 17:28:47 10° NNE
Ariane Rocket 3.0 17:19:58 10° SSE 17:25:01 78° ENE 17:30:08 10° NNW
Cosmos 2221 2.6 17:22:43 10° NNW 17:27:08 88° W 17:31:31 10° S
H-2A R/B 4.2 17:25:36 10° E 17:28:12 18° ENE 17:30:50 10° NNE
YAOGAN 1 2.7 17:26:29 10° SE 17:30:41 51° ENE 17:34:55 10° N
CORIOLIS 4.1 17:26:21 10° SSE 17:31:42 82° ENE 17:37:06 10° NNW
CZ-4 R/B 1.5 17:27:40 10° SSE 17:31:54 69° ENE 17:36:08 10° N
Cosmos 2322 Rocket 4.0 17:28:47 10° NNW 17:32:19 16° N 17:35:52 10° NE
NOSS 7 (D) 4.3 17:29:34 10° SW 17:32:47 86° SE 17:36:05 11° NE
RESURS DK-1 3.6 17:29:25 10° NNW 17:32:49 23° NE 17:36:12 10° E
Cosmos 1461 4.1 17:28:40 10° W 17:32:52 39° NNW 17:37:16 10° NE
Cosmos 2369 Rocket 4.3 17:29:58 10° NW 17:34:58 33° WSW 17:39:58 10° S
NOSS 2-1 (E) 3.6 17:31:25 10° SW 17:35:13 64° SE 17:39:46 11° NE
Cosmos 1943 Rocket 3.6 17:30:22 10° NW 17:35:40 44° WSW 17:40:54 10° S
Cosmos 1674 2.7 17:32:17 10° SSW 17:36:02 81° W 17:39:48 10° N
Fregat R/B Cluster 11 4.3 17:34:57 10° WSW 17:37:57 63° NW 17:43:37 10° NE
Cosmos 1315 Rocket 3.7 17:34:57 10° SSE 17:38:21 28° E 17:41:45 10° NNE
Cosmos 2181 Rocket 4.1 17:33:40 10° S 17:40:01 64° E 17:46:20 10° NNE
Cosmos 1626 3.4 17:37:31 10° SE 17:40:21 21° E 17:43:12 10° NE
Cosmos 1777 Rocket 4.0 17:36:07 10° NNW 17:41:24 82° ENE 17:46:40 10° SSE
SL-8 Rocket 4.0 17:36:14 10° N 17:42:27 83° ENE 17:48:42 10° SSE
Cosmos 2219 Rocket 4.0 17:39:29 10° WNW 17:43:37 20° NNW 17:47:46 10° NNE
CSL-04 Rocket 4.1 17:38:40 10° S 17:44:11 69° WSW 17:49:41 10° NNW
ALOS 2.4 17:41:45 10° SE 17:46:15 50° ENE 17:50:47 10° N
IRS-1A Rocket 4.3 17:41:58 10° SSE 17:47:34 80° ENE 17:53:18 10° NNW
NOSS 3-4 (A) 4.3 17:42:17 10° NW 17:49:04 64° SW 17:56:23 10° SSE
NOSS 3-4 (C) 4.3 17:42:24 10° NW 17:49:11 65° SW 17:56:30 10° SSE
ERBS 2.5 17:47:13 10° WNW 17:50:37 70° SSW 17:53:59 10° ESE
Cosmos 1992 Rocket 4.0 17:46:30 10° SSW 17:51:43 90° ESE 17:56:59 10° NNE
Cosmos 2218 Rocket 3.9 17:46:54 10° N 17:53:08 83° E 17:59:17 10° SSE
Cosmos 1515 Rocket 4.1 17:50:05 10° N 17:54:07 35° ENE 17:58:08 10° SE
SL-16 R/B 3.9 17:51:58 10° NNW 17:55:42 17° NNE 17:58:43 12° NE
Meteor 2-2 Rocket 4.2 17:51:09 10° NNW 17:56:57 80° ENE 18:02:38 10° SSE
Geosat 4.5 17:53:13 11° NE 17:57:54 42° ESE 18:02:39 10° S
SPOT 3 Rocket 3.6 17:53:36 10° SE 17:58:37 55° ENE 18:03:41 10° N
SJ 16-02 3.5 17:57:54 10° NNE 17:58:52 11° NNE 17:59:18 10° NE
Cosmos 1328 4.1 17:56:04 10° SSE 17:59:54 44° E 18:03:46 10° NNE
Cosmos 1408 Rocket 4.0 17:56:01 10° SSE 18:00:00 38° E 18:04:01 10° NNE
Cosmos 1300 3.4 17:57:37 10° NNW 18:01:25 58° W 18:05:10 10° S
MOS 1 4.2 17:55:49 10° SSE 18:01:25 72° ENE 18:07:04 10° NNW
Cosmos 2360 Rocket 4.1 17:58:32 10° NW 18:01:59 16° N 18:05:20 10° NE
NOSS 3-3 (A) 4.1 17:55:46 10° SW 18:02:02 84° SE 18:08:14 14° NE
FREGAT/IRIS 4.2 18:02:52 18° NE 18:02:52 18° NE 18:04:21 10° NNE
NOSS 3-3 (C) 4.1 17:55:51 10° SW 18:02:08 83° SE 18:08:19 14° NE
Cosmos 1076 Rocket 3.5 17:58:41 10° S 18:03:03 74° E 18:07:26 10° NNE
ERS-2 2.5 17:59:41 10° SE 18:03:09 40° ENE 18:06:39 10° N
Cosmos 1400 Rocket 2.9 17:59:45 10° SSW 18:03:51 88° WNW 18:08:03 10° NNE
FENGYUN 3A 3.6 17:59:06 10° SSE 18:04:25 70° ENE 18:09:48 10° NNW
BREEZE-M DEB (TANK) 4.1 18:02:24 10° SSW 18:04:47 15° SSE 18:06:24 10° SE
CZ-2C R/B 3.9 18:00:30 10° NNE 18:05:09 53° E 18:09:42 10° S
COSMO-SKYMED 1 3.0 18:01:41 10° NNE 18:05:48 39° E 18:09:53 10° SSE
Cosmos 1980 Rocket 3.4 18:01:29 10° NNW 18:06:07 25° NNE 18:08:48 18° ENE
USA 116 4.1 18:02:17 10° NNE 18:06:29 60° ESE 18:11:11 10° S
Cosmos 1340 3.5 18:04:13 10° N 18:07:32 27° ENE 18:10:49 10° SE
Cosmos 1898 Rocket 3.9 18:06:45 10° NNW 18:11:52 43° NE 18:16:55 10° SE
METEOR-M 4.4 18:08:21 10° S 18:13:41 72° WSW 18:19:05 10° NNW
ATLAS 5 CENTAUR R/B 3.0 18:09:49 10° WNW 18:14:37 35° N 18:18:03 19° ENE
Resurs 01 Rocket 3.1 18:16:46 18° NE 18:16:46 18° NE 18:19:20 10° N
Cosmos 1703 3.9 18:13:36 10° SSE 18:17:13 34° E 18:19:37 18° NE
MONITOR-E 4.1 18:18:00 10° SSE 18:21:03 82° WSW 18:24:07 10° NNW
USA 161 3.9 18:20:05 10° NNW 18:21:29 15° WNW 18:22:47 10° WSW
Cosmos 2333 Rocket 4.1 18:18:19 10° WNW 18:22:15 18° NNW 18:26:10 10° NNE
Cosmos 1328 Rocket 3.4 18:19:16 10° N 18:23:40 84° ENE 18:28:02 10° SSE
Cosmos 990 Rocket 4.5 18:19:17 10° NNW 18:24:16 39° NE 18:27:30 19° ESE
Cosmos 909 Rocket 4.4 18:17:56 10° NW 18:25:14 76° SW 18:31:32 10° SSE
Cosmos 44 3.4 18:21:38 10° SSW 18:25:48 45° SE 18:27:48 27° ENE
Cosmos 2366 rocket 4.4 18:19:56 10° NNW 18:26:10 69° W 18:32:17 10° S
Cosmos 2344 4.4 18:17:55 10° WNW 18:26:19 54° N 18:34:04 21° ENE
Cosmos 2228 Rocket 3.1 18:22:11 10° N 18:26:48 71° ENE 18:31:23 10° SSE
Cosmos 2278 3.9 18:21:34 10° NNW 18:27:08 48° NE 18:31:13 18° ESE
Cosmos 2098 Rocket 3.6 18:22:22 10° N 18:27:26 83° E 18:33:48 10° SSE
Cosmos 1743 Rocket 4.0 18:25:07 10° SSE 18:29:10 38° E 18:31:45 19° NE
Lacrosse 4 Rocket 3.5 18:27:13 10° WNW 18:29:58 17° NNW 18:32:18 12° NNE
Meteor 1-28 Rocket 4.0 18:26:24 10° N 18:30:10 53° WNW 18:33:52 10° SSW
Cosmos 1821 Rocket 4.0 18:25:22 10° N 18:31:27 57° ENE 18:37:33 10° SSE
Cosmos 371 Rocket 4.1 18:28:56 10° SSE 18:33:04 29° ESE 18:33:38 28° E
Meteor 1-27 4.4 18:29:45 10° NNW 18:35:29 81° WSW 18:41:15 10° S
SL-14 R/B 3.9 18:31:55 10° SSW 18:35:48 56° WNW 18:39:40 10° N
Cosmos 1437 3.2 18:32:45 10° N 18:35:17 39° NE 18:35:17 39° NE
SKYMED 3 4.5 18:31:35 10° NNE 18:35:58 72° ESE 18:40:18 10° S
USA 215 3.3 18:32:03 23° ENE 18:36:25 80° N 18:42:58 10° W
SJ-6B 3.1 18:36:43 37° E 18:37:02 38° ENE 18:40:33 10° N
Envisat 3.5 18:35:58 23° ESE 18:38:24 37° ENE 18:43:04 10° N
SL-16 R/B 4.0 18:34:54 10° W 18:39:27 24° NNW 18:43:59 10° NNE
Cosmos 2369 3.7 18:36:40 10° NNW 18:42:23 61° NE 18:46:25 19° SE
COSMOS 2406 3.6 18:38:44 10° S 18:44:06 43° ESE 18:46:24 29° ENE
Meteor 1-11 4.1 18:38:58 10° S 18:44:34 73° E 18:50:16 10° NNE
TSX-5 3.5 18:42:51 10° SSW 18:46:14 79° SE 18:47:29 41° NE
Cosmos 1656 3.6 18:41:50 10° NNW 18:47:15 58° NE 18:50:16 26° ESE
GEOS 3 Rocket 3.6 18:43:42 16° SE 18:48:02 89° NE 18:53:29 10° NW
Cosmos 1943 4.0 18:42:35 10° WSW 18:48:02 49° NW 18:52:49 13° NNE
Cosmos 1766 Rocket 3.7 18:44:08 10° SSW 18:48:27 71° WNW 18:52:48 10° N
Cosmos 1697 Rocket 2.9 18:46:19 10° NNW 18:51:48 49° NE 18:53:45 35° E
Cosmos 1151 Rocket 3.1 18:48:35 10° NNW 18:53:00 80° W 18:57:23 10° S
Nadezhda 3 Rocket 4.0 18:47:18 10° S 18:53:34 65° E 18:59:53 10° NNE
SKYMED 2 3.6 18:49:38 10° NNE 18:54:01 80° WNW 18:58:21 10° SSW
Cosmos 2058 2.8 18:50:40 10° S 18:54:49 65° E 18:56:48 30° NNE
NOSS 2-1 (C) 4.3 18:53:00 10° W 18:56:52 46° NNW 18:58:48 29° NNE
NOSS 2-1 (D) 4.3 18:53:42 10° W 18:57:33 45° NNW 18:59:28 29° NNE
Cosmos 1455 2.8 18:54:47 10° NNW 18:58:36 58° W 19:02:21 10° S
Cosmos 2237 Rocket 4.2 18:55:53 10° NW 18:59:30 17° N 19:02:21 12° NNE
Cosmos 1346 Rocket 4.5 18:56:21 10° NNW 18:59:56 34° W 19:03:29 10° SSW
FengYun 1-2 T 4.2 18:54:56 10° SSE 19:00:34 85° WSW 19:06:12 10° NNW
H-2A R/B 3.0 18:58:11 10° S 19:02:01 71° WSW 19:05:57 10° NNW
Cosmos 1937 Rocket 3.4 18:57:36 10° NNW 19:02:52 70° ENE 19:05:31 30° SE
Cosmos 2298 Rocket 3.9 18:59:26 10° NNW 19:04:46 66° ENE 19:06:58 35° SE
Meteor 2-10 Rocket 3.4 19:00:47 10° N 19:05:51 60° ENE 19:07:51 34° SE
Cosmos 1934 Rocket 3.9 18:59:43 10° N 19:06:07 73° ENE 19:12:30 10° SSE
CZ-4 R/B 4.4 19:04:23 10° SW 19:07:22 18° W 19:10:22 10° NW
Cosmos 44 Rocket 3.1 19:03:17 10° SW 19:07:59 76° SE 19:09:04 53° ENE
Thor Agena Rocket 4.5 19:10:36 31° SE 19:10:36 31° SE 19:13:46 10° SSE
RESURS DK-1 2.3 19:07:11 10° NW 19:11:23 83° SW 19:12:20 52° SSE
Cosmos 1605 Rocket 3.9 19:08:03 10° N 19:14:10 60° ENE 19:18:16 21° SSE
Cosmos 1315 Rocket 4.3 19:11:14 10° SW 19:14:51 35° WNW 19:18:30 10° N
Cosmos 1626 3.3 19:11:53 10° SW 19:15:27 43° WNW 19:18:14 15° N
Cosmos 2322 Rocket 3.3 19:13:32 10° NNW 19:18:11 27° NNE 19:18:11 27° NNE
CZ-4C R/B 4.1 19:14:57 10° SSE 19:15:35 13° SSE 19:15:35 13° SSE
Cosmos 1869 3.3 19:19:23 10° NNW 19:23:21 77° W 19:23:33 75° SW
Cosmos 2360 4.4 19:17:56 10° NNW 19:23:32 50° NE 19:23:45 49° NE
EO 1 Del DPAF 3.6 19:22:35 44° NNW 19:23:34 63° WNW 19:27:21 10° SSW
ALOS 4.3 19:19:55 10° SSW 19:23:56 28° W 19:27:59 10° NNW
Cosmos 2151 3.1 19:19:42 10° SSW 19:23:59 74° WNW 19:25:46 35° N
Cosmos 332 Rocket 3.7 19:23:44 10° SSW 19:28:39 83° ESE 19:29:09 72° NE
H-2A R/B 4.2 19:32:04 12° NNE 19:32:04 12° NNE 19:32:44 10° N
Cosmos 2219 Rocket 4.1 19:26:18 10° NNW 19:29:51 16° N 19:30:40 16° NNE
Spot 2 Rocket 3.8 19:32:51 49° NNE 19:32:51 49° NNE 19:36:50 10° N
Cosmos 2150 Rocket 3.8 19:28:30 10° NNW 19:33:43 89° WSW 19:34:37 62° SSE
ERS-2 4.5 19:33:54 10° SSW 19:36:58 24° W 19:40:03 10° NW
Meteor 2-15 4.4 19:32:36 10° SSW 19:38:44 84° WNW 19:44:52 10° NNE
SJ 16-02 3.2 19:34:43 10° NNW 19:36:19 20° N 19:36:19 20° N
SL-16 R/B 3.2 19:36:26 10° NNW 19:40:36 32° NNE 19:40:36 32° NNE
Cosmos 1153 Rocket 4.3 19:35:45 10° N 19:41:53 65° ENE 19:42:02 65° E
COSMO-SKYMED 1 4.2 19:38:01 10° N 19:41:55 33° WNW 19:45:48 10° SW
Cosmos 1340 4.3 19:39:48 10° NNW 19:43:16 34° W 19:45:53 15° SSW
Lacrosse 5 4.2 19:42:37 10° S 19:43:12 12° S 19:43:12 12° S
Cosmos 2360 Rocket 3.7 19:43:31 10° NNW 19:47:06 23° NNE 19:47:06 23° NNE
Cosmos 489 Rocket 4.3 19:42:40 10° NNW 19:48:58 68° ENE 19:49:00 68° ENE
Cosmos 1980 Rocket 2.2 19:45:26 10° NNW 19:50:36 66° NNE 19:50:36 66° NNE
Cosmos 1500 Rocket 4.4 19:47:14 10° SSW 19:51:36 50° WNW 19:52:49 39° NNW
Resurs 01 Rocket 3.0 19:54:20 32° NNW 19:54:20 32° NNW 19:56:43 10° NNW
Cosmos 2208 Rocket 4.3 19:51:01 10° SSW 19:55:22 61° SSW 19:55:22 61° SSW
ATLAS 5 CENTAUR R/B 2.6 19:54:53 10° NW 19:59:36 52° N 19:59:36 52° N
Cosmos 44 4.2 20:02:48 10° WSW 20:06:15 41° WNW 20:06:15 41° WNW
Cosmos 2333 Rocket 4.1 20:04:51 10° NNW 20:08:13 18° N 20:08:13 18° N
Lacrosse 4 Rocket 4.1 20:08:03 10° NNW 20:08:38 12° NNW 20:08:38 12° NNW
Cosmos 371 Rocket 4.2 20:08:31 10° SW 20:12:22 46° W 20:12:22 46° W
Envisat 3.9 20:16:09 38° SW 20:17:22 45° W 20:22:17 10° NNW
USA 215 3.1 20:19:24 81° N 20:19:24 81° N 20:25:57 10° WNW
SL-16 R/B 4.3 20:22:14 10° NW 20:25:42 16° N 20:25:52 16° N
COSMOS 2406 3.9 20:22:51 10° WSW 20:28:25 50° NW 20:28:30 50° NW
Cosmos 1697 Rocket 3.6 20:30:29 10° NW 20:35:32 43° WSW 20:35:32 43° WSW
Cosmos 2344 4.2 20:32:48 10° NW 20:42:15 85° NE 20:44:06 68° ESE
Cosmos 2237 Rocket 4.4 20:41:57 10° NNW 20:44:11 16° N 20:44:11 16° N
Cosmos 2322 Rocket 3.9 20:57:32 10° NNW 21:00:01 27° NNW 21:00:01 27° NNW
Cosmos 2219 Rocket 4.5 21:10:53 10° NNW 21:12:24 17° NNW 21:12:24 17° NNW
SL-16 R/B 4.3 21:20:32 10° NW 21:22:29 22° NW 21:22:29 22° NW
Cosmos 1980 Rocket 4.4 21:29:59 10° NW 21:32:23 21° WNW 21:32:23 21° WNW
ATLAS 5 CENTAUR R/B 4.5 21:39:34 10° NW 21:41:10 20° WNW 21:41:10 20° WNW
